Tracking 20083 objects as of 9-Dec-2019
HD Live streaming from Space Station
objects crossing your sky now

COSMOS 1464

Track COSMOS 1464 now!
10-day predictions
COSMOS 1464 is classified as:


NORAD ID: 14084
Int'l Code: 1983-048A
Perigee: 968.8 km
Apogee: 1,012.7 km
Inclination: 82.9 °
Period: 104.8 minutes
Semi major axis: 7361 km
RCS: 3.4425 m2 (large)
Launch date: May 24, 1983
Source: Commonwealth of Independent States (former USSR) (CIS)
Launch site: PLESETSK MISSILE AND SPACE COMPLEX (PKMTR)
aabbcc
Your satellite tracking list
Your tracking list is empty




NASA's NSSDC Master Catalog

Two Line Element Set (TLE):
1 14084U 83048A   19342.77415446  .00000048  00000-0  34988-4 0  9995
2 14084  82.9439 168.0963 0029828 188.7255 181.9219 13.74459350832861
Source of the keplerian elements: AFSPC